Location: Newark
(37.7733°N, 97.7642°W)
Time: 22:23:36
(UTC+00:00)

ISS - Pass Details

Date: 28 July 2019
Orbit: 410 x 421 km, 51.6° (Epoch: 25 August)

Event Time Altitude Azimuth Distance (km) Brightness Sun altitude
Rises 05:13:49 0° 316° (NW) 2,368 1.1 -29.9°
Reaches altitude 10° 05:16:04 10° 327° (NNW) 1,500 -0.1 -30.0°
Enters shadow 05:16:48 15° 334° (NNW) 1,243 -0.6 -30.1°
